Regional Weather Roundup
Issued by NWS Northern Indiana

Home | Current Version | Previous Version | Text Only | Print | Product List | Glossary Off
Versions: 1 2 3 4 5 6 7 8 9 10 11 12 13 14 15 16 17 18 19 20 21 22 23 24 25 26 27 28 29 30 31 32 33 34 35 36 37 38 39 40 41 42 43 44 45 46 47 48 49 50

094
ASUS43 KIWX 232310
RWRIWX

KIWX WEATHER ROUNDUP
NATIONAL WEATHER SERVICE NORTHERN INDIANA
700 PM EDT SUN APR 23 2017

NOTE: "FAIR" INDICATES FEW OR NO CLOUDS BELOW 12,000 FEET WITH NO
SIGNIFICANT WEATHER AND/OR OBSTRUCTIONS TO VISIBILITY.

* THESE STATIONS ARE NOT UNDER NWS QUALITY CONTROL. THEY ALSO MAY NOT
  REPORT WEATHER SUCH AS PRECIPITATION OR FOG.

INZ001>027-240000-
NORTHERN INDIANA

CITY           SKY/WX    TMP DP  RH WIND       PRES   REMARKS
GARY*          SUNNY     64  12  13 NE6       30.07R
VALPARAISO     SUNNY     68  22  17 N8        30.05S
MICHIGAN CITY* SUNNY     61  28  29 N6        30.07S
LAPORTE*       SUNNY     64  28  25 N10       30.05S
KNOX*          SUNNY    N/A N/A N/A NE5       30.03S
SOUTH BEND     SUNNY     67  32  27 NW5       30.04S
GOSHEN         SUNNY     67  34  29 E6        30.03S
MONTICELLO*    SUNNY     69  25  19 NE9       30.01F
LOGANSPORT*    SUNNY     68  32  26 NE7       30.03R
ROCHESTER*     SUNNY     70  25  18 N6        30.03F
WARSAW*        SUNNY     66  32  28 NE5       30.03S
ANGOLA*        SUNNY     68  59  73 NE6       30.03S
FORT WAYNE     CLOUDY    65  33  30 NE13      30.03S
HUNTINGTON*    SUNNY     66  28  24 NE7       30.02S
PERU/GRISSOM   SUNNY     67  33  27 N9        30.01R
MARION*        CLOUDY    66  30  26 NE14      30.01S

$$
INZ028>050-240000-
CENTRAL INDIANA

CITY           SKY/WX    TMP DP  RH WIND       PRES   REMARKS
LAFAYETTE      SUNNY     67  35  30 NE9       30.01R
KOKOMO*        SUNNY     67  34  29 NE10      30.02S
MUNCIE*        SUNNY     67  25  20 NE15      30.01R
INDIANAPOLIS   SUNNY     69  30  23 NE16      29.98S

$$
MIZ043>046-050>051-056>058-064>065-071>073-077>080-240000-
SOUTHWEST LOWER MICHIGAN

CITY           SKY/WX    TMP DP  RH WIND       PRES   REMARKS
BATTLE CREEK   SUNNY     68  28  22 NW5       30.05R
BENTON HARBOR  SUNNY     62  25  24 VRB5      30.06S
COLDWATER*     SUNNY     66  30  26 CALM      30.04S
HILLSDALE*     SUNNY     66  28  24 CALM      30.04R
HOLLAND        SUNNY     62  31  31 W6        30.07R
GRAND RAPIDS   MOSUNNY   67  32  27 SW5       30.04S
KALAMAZOO      SUNNY     69  22  16 CALM      30.04S
STURGIS*       SUNNY     68  29  23 CALM      30.03S
THREE RIVERS*  FAIR      67  29  23 SE3       30.04S

$$
OHZ001>008-015>018-024>025-240000-
NORTHWEST OHIO

CITY           SKY/WX    TMP DP  RH WIND       PRES   REMARKS
WAUSEON*       FAIR      66  27  22 E3        30.04S
DEFIANCE       SUNNY     65  29  25 N9        30.03S
FINDLAY        CLOUDY    65  24  21 NE15      30.02R
TOLEDO EXPRESS CLOUDY    66  24  20 E8        30.04S
TOLEDO METCALF CLOUDY    64  26  23 NE6       30.05F
LIMA           SUNNY     66  32  28 NE12      30.01S

$$
AND FOR LAKE MICHIGAN COASTAL AND OPEN LAKE BUOY OBSERVATIONS

STATION/POSITION TEMP    WIND        PRES    VSBY  WAVE
                 AIR SEA DIR/SP/G                  HT/PER
                 (F)     (DEG/KT/KT) (MB)    (MI)  (FT/S)
CALUMET HARBOR    60      90/  6/  9 1017.3S
MICHIGAN CITY     53      20/  5/  5   N/A
BURNS HARBOR      59      60/  5/  5 1018.3S
4 MI NW BRIDGMAN  53 54   20/  4/  4 1018.5          0

$$
&&




USA.gov is the U.S. government's official web portal to all federal, state and local government web resources and services.